TimeEST,TemperatureF,Dew PointF,Humidity,Sea Level PressureIn,VisibilityMPH,Wind Direction,Wind SpeedMPH,Gust SpeedMPH,PrecipitationIn,Events,Conditions,WindDirDegrees,DateUTC
12:54 AM,3.0,-0.9,84,30.13,10.0,WNW,3.5,-,N/A,,Clear,290,2013-03-04 05:54:00
1:54 AM,1.9,-2.0,83,30.14,10.0,NW,4.6,-,N/A,,Clear,320,2013-03-04 06:54:00
2:54 AM,-0.9,-6.0,79,30.15,10.0,Calm,Calm,-,N/A,,Clear,0,2013-03-04 07:54:00
3:54 AM,-2.9,-9.0,75,30.14,10.0,Calm,Calm,-,N/A,,Clear,0,2013-03-04 08:54:00
4:54 AM,-5.1,-11.0,76,30.16,10.0,NW,5.8,-,N/A,,Clear,310,2013-03-04 09:54:00
5:54 AM,-6.0,-11.9,75,30.18,10.0,Calm,Calm,-,N/A,,Clear,0,2013-03-04 10:54:00
6:54 AM,-8.0,-13.0,79,30.18,10.0,Calm,Calm,-,N/A,,Clear,0,2013-03-04 11:54:00
7:54 AM,-8.0,-14.1,75,30.19,10.0,Calm,Calm,-,N/A,,Clear,0,2013-03-04 12:54:00
8:54 AM,3.9,-0.9,80,30.20,10.0,NW,3.5,-,N/A,,Clear,310,2013-03-04 13:54:00
9:54 AM,15.1,7.0,70,30.20,10.0,North,8.1,-,N/A,,Clear,350,2013-03-04 14:54:00
10:54 AM,19.0,7.0,59,30.19,10.0,North,4.6,-,N/A,,Clear,10,2013-03-04 15:54:00
11:54 AM,21.9,9.0,58,30.19,10.0,North,3.5,-,N/A,,Clear,350,2013-03-04 16:54:00
12:54 PM,24.1,8.1,51,30.18,10.0,Calm,Calm,-,N/A,,Clear,0,2013-03-04 17:54:00
1:54 PM,27.0,9.0,47,30.16,10.0,NW,5.8,-,N/A,,Clear,320,2013-03-04 18:54:00
2:54 PM,27.0,7.0,43,30.16,10.0,NW,5.8,-,N/A,,Clear,310,2013-03-04 19:54:00
3:54 PM,27.0,6.1,41,30.15,10.0,WNW,6.9,-,N/A,,Clear,300,2013-03-04 20:54:00
4:54 PM,28.0,3.0,34,30.16,10.0,NNW,5.8,-,N/A,,Clear,330,2013-03-04 21:54:00
5:54 PM,28.0,-0.0,30,30.16,10.0,Calm,Calm,-,N/A,,Clear,0,2013-03-04 22:54:00
6:54 PM,19.9,1.9,46,30.18,10.0,NW,5.8,-,N/A,,Clear,320,2013-03-04 23:54:00
7:54 PM,15.1,3.9,61,30.19,10.0,NW,3.5,-,N/A,,Clear,320,2013-03-05 00:54:00
8:54 PM,9.0,1.0,70,30.20,10.0,North,4.6,-,N/A,,Clear,350,2013-03-05 01:54:00
9:54 PM,10.9,1.9,67,30.19,10.0,Calm,Calm,-,N/A,,Clear,0,2013-03-05 02:54:00
10:54 PM,5.0,-0.0,80,30.19,10.0,Calm,Calm,-,N/A,,Clear,0,2013-03-05 03:54:00
11:54 PM,5.0,-0.9,76,30.19,10.0,Calm,Calm,-,N/A,,Clear,0,2013-03-05 04:54:00